sat.trackr.live / text

‹ back to catalog

STARLINK-5363

NORAD 55497 · 2023-015BA

PAYLOAD ACTIVE UNKNOWN

§ Identity

Operator
Country
US
Launch date
2023-02-02
Launch site
AFETR
Launch vehicle
Mass (kg)
RCS (m²)

Purposes: comms

External: N2YO · Heavens-Above · Gunter

§ Orbital elements

Epoch: 2026-05-25T01:28:50.465280Z

Period
94.27 min
Inclination
42.9994°
Eccentricity
0.0001244
Mean motion
15.27573836 rev/d
Perigee alt
482.2 km
Apogee alt
483.9 km
Semi-major
6,861.2 km
B*
8.1349e-6
RAAN
268.5670°
Arg perigee
313.8022°
Mean anomaly
46.2727°
Rev number
18,227

§ Raw data

STARLINK-53631 55497U 23015BA  26145.06169520 -.00000038  00000+0  81349-5 0  99992 55497  42.9994 268.5670 0001244 313.8022  46.2727 15.27573836182278

JSON: /api/v1/satellites/55497 · /tle

For live sub-satellite position, see the globe view (requires WebGL).

§ Visibility from observer

Set your observer location to see the next 7 days of passes ≥ 10°. The values pass through the URL so the page stays shareable.

No JS? Fill the form by hand. The geolocation button needs JavaScript.